Weather in Panama

Panama     9°01′13″N   79°30′58″W
temp.,
°C
wind,
m/s
gust,
m/s
humid.,
%
clouds,
%
prec.,
mm/h
press.,
hPa
HPBL,
m
24 january, mon
mon2401:00+22nnw348886 0.0 1010132
04:00+23nnw238540 0.0 1009102
07:00+22nnw23895 0.1 101166
10:00+29n45586 0.0 10121171
13:00+31n554912 0.0 10091531
16:00+29n675457 0.0 10081345
19:00+24nnw357652 0.0 1010240
22:00+22nw3485100 0.0 101291
25 january, tue
tue2501:00+21nw3590100 0.0 1011105
04:00+21nw3492100 0.0 101090
07:00+23nw2487100 0.1 1012110
10:00+28nne3460100 0.1 10131191
13:00+30ne135384 0.1 10101267
16:00+29nne1255100 0.0 1008904
19:00+24nnw347313 0.1 1010116
22:00+21nnw3387100 0.0 101267
26 january, wed
wed2601:00+21nnw3391100 0.0 101274
04:00+20nw349169 0.0 101188
07:00+21nw358889 0.0 1012119
10:00+28nnw355993 0.0 10131161
13:00+29n2559100 0.0 10111020
16:00+28nnw4764100 0.1 1009572
19:00+24nw368083 0.2 1010290
22:00+23nw358858 0.0 1012151
27 january, thu
thu2701:00+23nw348739 0.0 101298
04:00+22nw23926 0.0 101180
07:00+22nnw349040 0.0 101289
10:00+29n356079 0.0 10141216
13:00+31n454519 0.1 10111547
16:00+30n564721 0.0 10091382
19:00+24n367247 0.0 1011276
22:00+22nw348076 0.0 1013100
28 january, fri
fri2801:00+21nw35828 0.0 1012104
04:00+23nw3578100 0.0 1011164
07:00+22nw2588100 0.2 1012192
10:00+28nnw246618 0.2 1013914
13:00+28s026496 0.5 1011590
16:00+27wnw247284 0.9 1009470
19:00+24nnw24810 1.3 101080
22:00+22nnw34900 0.0 101385